This is the latest recevied weather packets stored in our database for station/object WP3XM. If no packets are shown the sender has not sent any weather packets the latest 1 day(s).
| Time | Temp. | Humidity | Pressure | Rain* | Wind** | Luminosity | Snow |
|---|---|---|---|---|---|---|---|
| 1778099168 | 28.89° C | 71% | 1017.4 hPa | 0 mm | - | 156 W/m² | - |
| 1778098864 | 28.89° C | 72% | 1017.5 hPa | 0 mm | - | 382 W/m² | - |
| 1778097954 | 28.89° C | 76% | 1017.2 hPa | 0 mm | - | 537 W/m² | - |
| 1778097651 | 28.89° C | 76% | 1017.3 hPa | 0 mm | - | 533 W/m² | - |
| 1778097347 | 28.89° C | 74% | 1017.4 hPa | 0 mm | - | 105 W/m² | - |
| 1778097044 | 29.44° C | 72% | 1017.5 hPa | 0 mm | - | 654 W/m² | - |
| 1778095225 | 28.89° C | 73% | 1017.8 hPa | 0 mm | - | 213 W/m² | - |
| 1778094922 | 28.89° C | 74% | 1017.9 hPa | 0 mm | - | 282 W/m² | - |
| 1778094618 | 28.89° C | 74% | 1018 hPa | 0 mm | - | 247 W/m² | - |
| 1778093406 | 28.89° C | 75% | 1017.8 hPa | 0 mm | - | 888 W/m² | - |
| 1778092193 | 29.44° C | 73% | 1017.9 hPa | 0 mm | - | 603 W/m² | - |
| 1778091890 | 28.89° C | 73% | 1018.2 hPa | 0 mm | - | 941 W/m² | - |
| 1778091587 | 29.44° C | 73% | 1018.2 hPa | 0 mm | - | 250 W/m² | - |
| 1778091285 | 30° C | 72% | 1018.3 hPa | 0 mm | - | 267 W/m² | - |
| 1778090982 | 29.44° C | 73% | 1018.4 hPa | 0 mm | - | 988 W/m² | - |
| 1778090072 | 29.44° C | 71% | 1018.6 hPa | 0 mm | - | 242 W/m² | - |
| 1778089163 | 30° C | 68% | 1018.9 hPa | 0 mm | - | 238 W/m² | - |
| 1778088860 | 30° C | 67% | 1018.8 hPa | 0 mm | - | 1113 W/m² | - |
| 1778088254 | 30.56° C | 64% | 1019.1 hPa | 0 mm | - | 1043 W/m² | - |
| 1778087951 | 30° C | 65% | 1019.1 hPa | 0 mm | - | 1063 W/m² | - |
| 1778087347 | 30° C | 67% | 1019.4 hPa | 0 mm | - | 523 W/m² | - |
| 1778086439 | 30° C | 67% | 1019.7 hPa | 0 mm | - | 1018 W/m² | - |
| 1778086135 | 30° C | 68% | 1019.4 hPa | 0 mm | - | 283 W/m² | - |
| 1778085831 | 29.44° C | 68% | 1019.8 hPa | 0 mm | - | 1038 W/m² | - |
| 1778084919 | 29.44° C | 66% | 1020.1 hPa | 0 mm | - | 1097 W/m² | - |
* Rain latest hour (hover to see other rain measurements)
** Current wind speed in m/s (hover to see current wind gust speed)